Time,TemperatureF,DewpointF,PressureIn,WindDirection,WindDirectionDegrees,WindSpeedMPH,WindSpeedGustMPH,Humidity,HourlyPrecipIn,Conditions,Clouds,dailyrainin,SoftwareType,DateUTC
2013-01-12 00:04:00,44.0,-99.9,29.72,North,-999,-999.0,-999.0,-999,-99.99,,,-99.99,,2013-01-12 05:04:00,
2013-01-12 00:12:00,42.0,-99.9,29.71,North,-999,-999.0,-999.0,-999,-99.99,,,-99.99,,2013-01-12 05:12:00,
2013-01-12 00:22:00,42.0,-99.9,29.71,SSE,157,7.0,9.0,-999,-99.99,,,-99.99,,2013-01-12 05:22:00,
2013-01-12 00:32:00,41.0,-99.9,29.70,North,-999,-999.0,-999.0,-999,-99.99,,,-99.99,,2013-01-12 05:32:00,
2013-01-12 00:42:00,41.0,-99.9,29.70,North,-999,-999.0,-999.0,-999,-99.99,,,-99.99,,2013-01-12 05:42:00,
2013-01-12 00:53:00,42.0,-99.9,29.70,North,-999,-999.0,-999.0,-999,-99.99,,,-99.99,,2013-01-12 05:53:00,
2013-01-12 01:03:00,42.0,-99.9,29.68,North,-999,-999.0,-999.0,-999,-99.99,,,-99.99,,2013-01-12 06:03:00,
2013-01-12 01:12:00,43.0,-99.9,29.67,North,-999,-999.0,-999.0,-999,-99.99,,,-99.99,,2013-01-12 06:12:00,
2013-01-12 01:22:00,43.0,-99.9,29.67,SSE,154,8.0,11.0,-999,-99.99,,,-99.99,,2013-01-12 06:22:00,
2013-01-12 01:33:00,42.0,-99.9,29.68,North,-999,-999.0,-999.0,-999,-99.99,,,-99.99,,2013-01-12 06:33:00,
2013-01-12 01:43:00,42.0,-99.9,29.67,North,-999,-999.0,-999.0,-999,-99.99,,,-99.99,,2013-01-12 06:43:00,
2013-01-12 01:53:00,42.0,-99.9,29.67,SE,144,9.0,10.0,-999,-99.99,,,-99.99,,2013-01-12 06:53:00,
2013-01-12 02:02:00,38.0,-99.9,29.67,North,-999,-999.0,-999.0,-999,-99.99,,,-99.99,,2013-01-12 07:02:00,
2013-01-12 02:12:00,38.0,-99.9,29.67,North,-999,-999.0,-999.0,-999,-99.99,,,-99.99,,2013-01-12 07:12:00,
2013-01-12 02:22:00,37.0,-99.9,29.67,North,-999,-999.0,-999.0,-999,-99.99,,,-99.99,,2013-01-12 07:22:00,
2013-01-12 02:32:00,39.0,-99.9,29.65,North,-999,-999.0,-999.0,-999,-99.99,,,-99.99,,2013-01-12 07:32:00,
2013-01-12 02:42:00,38.0,-99.9,29.66,North,-999,-999.0,-999.0,-999,-99.99,,,-99.99,,2013-01-12 07:42:00,
2013-01-12 02:53:00,38.0,-99.9,29.66,ESE,108,10.0,12.0,-999,-99.99,,,-99.99,,2013-01-12 07:53:00,
2013-01-12 03:02:00,40.0,-99.9,29.65,North,-999,-999.0,-999.0,-999,-99.99,,,-99.99,,2013-01-12 08:02:00,
2013-01-12 03:12:00,44.0,-99.9,29.65,North,-999,-999.0,-999.0,-999,-99.99,,,-99.99,,2013-01-12 08:12:00,
2013-01-12 03:22:00,44.0,-99.9,29.65,South,172,10.0,13.0,-999,-99.99,,,-99.99,,2013-01-12 08:22:00,
2013-01-12 03:32:00,44.0,-99.9,29.64,North,-999,-999.0,-999.0,-999,-99.99,,,-99.99,,2013-01-12 08:32:00,
2013-01-12 03:42:00,45.0,-99.9,29.65,North,-999,-999.0,-999.0,-999,-99.99,,,-99.99,,2013-01-12 08:42:00,
2013-01-12 03:53:00,45.0,-99.9,29.65,North,-999,-999.0,-999.0,-999,-99.99,,,-99.99,,2013-01-12 08:53:00,
2013-01-12 04:02:00,44.0,-99.9,29.64,North,-999,-999.0,-999.0,-999,-99.99,,,-99.99,,2013-01-12 09:02:00,
2013-01-12 04:12:00,45.0,-99.9,29.64,North,-999,-999.0,-999.0,-999,-99.99,,,-99.99,,2013-01-12 09:12:00,
2013-01-12 04:22:00,45.0,-99.9,29.63,South,180,11.0,14.0,-999,-99.99,,,-99.99,,2013-01-12 09:22:00,
2013-01-12 04:33:00,45.0,-99.9,29.63,North,-999,-999.0,-999.0,-999,-99.99,,,-99.99,,2013-01-12 09:33:00,
2013-01-12 04:43:00,47.0,-99.9,29.62,North,-999,-999.0,-999.0,-999,-99.99,,,-99.99,,2013-01-12 09:43:00,
2013-01-12 04:53:00,47.0,-99.9,29.62,South,189,13.0,17.0,-999,-99.99,,,-99.99,,2013-01-12 09:53:00,
2013-01-12 05:02:00,47.0,-99.9,29.62,North,-999,-999.0,-999.0,-999,-99.99,,,-99.99,,2013-01-12 10:02:00,
2013-01-12 05:12:00,47.0,-99.9,29.62,North,-999,-999.0,-999.0,-999,-99.99,,,-99.99,,2013-01-12 10:12:00,
2013-01-12 05:22:00,48.0,-99.9,29.61,South,191,12.0,15.0,-999,-99.99,,,-99.99,,2013-01-12 10:22:00,
2013-01-12 05:32:00,48.0,-99.9,29.60,North,-999,-999.0,-999.0,-999,-99.99,,,-99.99,,2013-01-12 10:32:00,
2013-01-12 05:43:00,49.0,-99.9,29.60,North,-999,-999.0,-999.0,-999,-99.99,,,-99.99,,2013-01-12 10:43:00,
2013-01-12 05:52:00,48.0,-99.9,29.60,SSW,196,14.0,17.0,-999,-99.99,,,-99.99,,2013-01-12 10:52:00,
2013-01-12 06:02:00,48.0,-99.9,29.60,North,-999,-999.0,-999.0,-999,-99.99,,,-99.99,,2013-01-12 11:02:00,
2013-01-12 06:12:00,48.0,-99.9,29.60,North,-999,-999.0,-999.0,-999,-99.99,,,-99.99,,2013-01-12 11:12:00,
2013-01-12 06:23:00,48.0,-99.9,29.60,SSW,196,12.0,18.0,-999,-99.99,,,-99.99,,2013-01-12 11:23:00,
2013-01-12 06:33:00,48.0,-99.9,29.59,North,-999,-999.0,-999.0,-999,-99.99,,,-99.99,,2013-01-12 11:33:00,
2013-01-12 06:43:00,50.0,-99.9,29.59,North,-999,-999.0,-999.0,-999,-99.99,,,-99.99,,2013-01-12 11:43:00,
2013-01-12 06:53:00,49.0,-99.9,29.59,South,187,16.0,21.0,-999,-99.99,,,-99.99,,2013-01-12 11:53:00,
2013-01-12 07:03:00,49.0,-99.9,29.59,North,-999,-999.0,-999.0,-999,-99.99,,,-99.99,,2013-01-12 12:03:00,
2013-01-12 07:12:00,49.0,-99.9,29.59,North,-999,-999.0,-999.0,-999,-99.99,,,-99.99,,2013-01-12 12:12:00,
2013-01-12 07:22:00,48.0,-99.9,29.59,North,-999,-999.0,-999.0,-999,-99.99,,,-99.99,,2013-01-12 12:22:00,
2013-01-12 07:33:00,48.0,-99.9,29.59,North,-999,-999.0,-999.0,-999,-99.99,,,-99.99,,2013-01-12 12:33:00,
2013-01-12 07:43:00,47.0,-99.9,29.59,North,-999,-999.0,-999.0,-999,-99.99,,,-99.99,,2013-01-12 12:43:00,
2013-01-12 07:53:00,47.0,-99.9,29.60,South,186,15.0,18.0,-999,-99.99,,,-99.99,,2013-01-12 12:53:00,
2013-01-12 08:03:00,47.0,-99.9,29.60,North,-999,-999.0,-999.0,-999,-99.99,,,-99.99,,2013-01-12 13:03:00,
2013-01-12 08:12:00,47.0,-99.9,29.60,North,-999,-999.0,-999.0,-999,-99.99,,,-99.99,,2013-01-12 13:12:00,
2013-01-12 08:23:00,47.0,-99.9,29.60,SSW,198,10.0,14.0,-999,-99.99,,,-99.99,,2013-01-12 13:23:00,
2013-01-12 08:33:00,47.0,-99.9,29.60,North,-999,-999.0,-999.0,-999,-99.99,,,-99.99,,2013-01-12 13:33:00,
2013-01-12 08:43:00,47.0,-99.9,29.60,North,-999,-999.0,-999.0,-999,-99.99,,,-99.99,,2013-01-12 13:43:00,
2013-01-12 08:53:00,48.0,-99.9,29.61,North,-999,-999.0,-999.0,-999,-99.99,,,-99.99,,2013-01-12 13:53:00,
2013-01-12 09:02:00,48.0,-99.9,29.61,North,-999,-999.0,-999.0,-999,-99.99,,,-99.99,,2013-01-12 14:02:00,
2013-01-12 09:13:00,47.0,-99.9,29.62,North,-999,-999.0,-999.0,-999,-99.99,,,-99.99,,2013-01-12 14:13:00,
2013-01-12 09:22:00,47.0,-99.9,29.62,North,-999,-999.0,-999.0,-999,-99.99,,,-99.99,,2013-01-12 14:22:00,
2013-01-12 09:33:00,47.0,-99.9,29.62,North,-999,-999.0,-999.0,-999,-99.99,,,-99.99,,2013-01-12 14:33:00,
2013-01-12 09:43:00,49.0,-99.9,29.62,North,-999,-999.0,-999.0,-999,-99.99,,,-99.99,,2013-01-12 14:43:00,
2013-01-12 09:53:00,49.0,-99.9,29.62,SSW,200,12.0,21.0,-999,-99.99,,,-99.99,,2013-01-12 14:53:00,
2013-01-12 10:03:00,49.0,-99.9,29.62,North,-999,-999.0,-999.0,-999,-99.99,,,-99.99,,2013-01-12 15:03:00,
2013-01-12 10:13:00,50.0,-99.9,29.62,North,-999,-999.0,-999.0,-999,-99.99,,,-99.99,,2013-01-12 15:13:00,
2013-01-12 10:23:00,49.0,-99.9,29.62,North,-999,-999.0,-999.0,-999,-99.99,,,-99.99,,2013-01-12 15:23:00,
2013-01-12 10:34:00,49.0,-99.9,29.62,North,-999,-999.0,-999.0,-999,-99.99,,,-99.99,,2013-01-12 15:34:00,
2013-01-12 10:43:00,51.0,-99.9,29.62,North,-999,-999.0,-999.0,-999,-99.99,,,-99.99,,2013-01-12 15:43:00,
2013-01-12 10:53:00,51.0,-99.9,29.63,SW,218,16.0,20.0,-999,-99.99,,,-99.99,,2013-01-12 15:53:00,
2013-01-12 11:03:00,51.0,-99.9,29.63,SW,218,16.0,20.0,-999,-99.99,,,-99.99,,2013-01-12 16:03:00,
2013-01-12 11:13:00,51.0,-99.9,29.63,SW,218,16.0,20.0,-999,-99.99,,,-99.99,,2013-01-12 16:13:00,
2013-01-12 11:23:00,51.0,-99.9,29.63,SW,218,16.0,20.0,-999,-99.99,,,-99.99,,2013-01-12 16:23:00,
2013-01-12 11:33:00,51.0,-99.9,29.64,North,-999,-999.0,-999.0,-999,-99.99,,,-99.99,,2013-01-12 16:33:00,
2013-01-12 11:43:00,52.0,-99.9,29.64,North,-999,-999.0,-999.0,-999,-99.99,,,-99.99,,2013-01-12 16:43:00,
2013-01-12 11:53:00,51.0,-99.9,29.64,SW,235,25.0,39.0,-999,-99.99,,,-99.99,,2013-01-12 16:53:00,
2013-01-12 12:03:00,51.0,-99.9,29.64,SW,235,25.0,39.0,-999,-99.99,,,-99.99,,2013-01-12 17:03:00,
2013-01-12 12:13:00,51.0,-99.9,29.64,SW,235,25.0,39.0,-999,-99.99,,,-99.99,,2013-01-12 17:13:00,
2013-01-12 12:23:00,51.0,-99.9,29.64,SW,235,25.0,39.0,-999,-99.99,,,-99.99,,2013-01-12 17:23:00,
2013-01-12 13:33:00,48.0,-99.9,29.65,North,-999,-999.0,-999.0,-999,-99.99,,,-99.99,,2013-01-12 18:33:00,
2013-01-12 13:43:00,47.0,-99.9,29.66,North,-999,-999.0,-999.0,-999,-99.99,,,-99.99,,2013-01-12 18:43:00,
2013-01-12 13:53:00,47.0,-99.9,29.66,WSW,237,25.0,42.0,-999,-99.99,,,-99.99,,2013-01-12 18:53:00,
2013-01-12 14:03:00,46.0,-99.9,29.68,North,-999,-999.0,-999.0,-999,-99.99,,,-99.99,,2013-01-12 19:03:00,
2013-01-12 14:12:00,45.0,-99.9,29.70,North,-999,-999.0,-999.0,-999,-99.99,,,-99.99,,2013-01-12 19:12:00,
2013-01-12 14:23:00,44.0,-99.9,29.70,North,-999,-999.0,-999.0,-999,-99.99,,,-99.99,,2013-01-12 19:23:00,
2013-01-12 14:33:00,44.0,-99.9,29.71,North,-999,-999.0,-999.0,-999,-99.99,,,-99.99,,2013-01-12 19:33:00,
2013-01-12 14:43:00,44.0,-99.9,29.72,North,-999,-999.0,-999.0,-999,-99.99,,,-99.99,,2013-01-12 19:43:00,
2013-01-12 14:53:00,43.0,-99.9,29.72,WSW,246,22.0,35.0,-999,-99.99,,,-99.99,,2013-01-12 19:53:00,
2013-01-12 15:03:00,43.0,-99.9,29.73,North,-999,-999.0,-999.0,-999,-99.99,,,-99.99,,2013-01-12 20:03:00,
2013-01-12 15:13:00,42.0,-99.9,29.74,North,-999,-999.0,-999.0,-999,-99.99,,,-99.99,,2013-01-12 20:13:00,
2013-01-12 15:22:00,42.0,-99.9,29.75,SW,230,24.0,37.0,-999,-99.99,,,-99.99,,2013-01-12 20:22:00,
2013-01-12 15:33:00,41.0,-99.9,29.75,North,-999,-999.0,-999.0,-999,-99.99,,,-99.99,,2013-01-12 20:33:00,
2013-01-12 15:43:00,41.0,-99.9,29.76,WSW,245,32.0,38.0,-999,-99.99,,,-99.99,,2013-01-12 20:43:00,
2013-01-12 15:53:00,41.0,-99.9,29.77,North,-999,-999.0,-999.0,-999,-99.99,,,-99.99,,2013-01-12 20:53:00,
2013-01-12 16:03:00,40.0,-99.9,29.78,North,-999,-999.0,-999.0,-999,-99.99,,,-99.99,,2013-01-12 21:03:00,
2013-01-12 16:12:00,40.0,-99.9,29.79,North,-999,-999.0,-999.0,-999,-99.99,,,-99.99,,2013-01-12 21:12:00,
2013-01-12 16:22:00,40.0,-99.9,29.79,WSW,247,19.0,34.0,-999,-99.99,,,-99.99,,2013-01-12 21:22:00,
2013-01-12 16:33:00,39.0,-99.9,29.80,North,-999,-999.0,-999.0,-999,-99.99,,,-99.99,,2013-01-12 21:33:00,
2013-01-12 16:43:00,39.0,-99.9,29.80,North,-999,-999.0,-999.0,-999,-99.99,,,-99.99,,2013-01-12 21:43:00,
2013-01-12 16:53:00,39.0,-99.9,29.80,WSW,246,19.0,29.0,-999,-99.99,,,-99.99,,2013-01-12 21:53:00,
2013-01-12 17:03:00,39.0,-99.9,29.82,North,-999,-999.0,-999.0,-999,-99.99,,,-99.99,,2013-01-12 22:03:00,
2013-01-12 17:12:00,39.0,-99.9,29.82,North,-999,-999.0,-999.0,-999,-99.99,,,-99.99,,2013-01-12 22:12:00,
2013-01-12 17:23:00,39.0,-99.9,29.82,WSW,244,17.0,27.0,-999,-99.99,,,-99.99,,2013-01-12 22:23:00,
2013-01-12 17:33:00,38.0,-99.9,29.83,North,-999,-999.0,-999.0,-999,-99.99,,,-99.99,,2013-01-12 22:33:00,
2013-01-12 17:44:00,38.0,-99.9,29.83,North,-999,-999.0,-999.0,-999,-99.99,,,-99.99,,2013-01-12 22:44:00,
2013-01-12 17:53:00,38.0,-99.9,29.83,North,-999,-999.0,-999.0,-999,-99.99,,,-99.99,,2013-01-12 22:53:00,
2013-01-12 18:03:00,38.0,-99.9,29.83,North,-999,-999.0,-999.0,-999,-99.99,,,-99.99,,2013-01-12 23:03:00,
2013-01-12 18:13:00,38.0,-99.9,29.84,North,-999,-999.0,-999.0,-999,-99.99,,,-99.99,,2013-01-12 23:13:00,
2013-01-12 18:23:00,38.0,-99.9,29.83,WSW,242,15.0,23.0,-999,-99.99,,,-99.99,,2013-01-12 23:23:00,
2013-01-12 18:33:00,38.0,-99.9,29.85,North,-999,-999.0,-999.0,-999,-99.99,,,-99.99,,2013-01-12 23:33:00,
2013-01-12 18:43:00,38.0,-99.9,29.85,North,-999,-999.0,-999.0,-999,-99.99,,,-99.99,,2013-01-12 23:43:00,
2013-01-12 18:53:00,38.0,-99.9,29.86,WSW,240,15.0,21.0,-999,-99.99,,,-99.99,,2013-01-12 23:53:00,
2013-01-12 19:03:00,38.0,-99.9,29.86,North,-999,-999.0,-999.0,-999,-99.99,,,-99.99,,2013-01-13 00:03:00,
2013-01-12 19:12:00,37.0,-99.9,29.86,North,-999,-999.0,-999.0,-999,-99.99,,,-99.99,,2013-01-13 00:12:00,
2013-01-12 19:23:00,37.0,-99.9,29.87,WSW,249,14.0,21.0,-999,-99.99,,,-99.99,,2013-01-13 00:23:00,
2013-01-12 19:33:00,37.0,-99.9,29.88,North,-999,-999.0,-999.0,-999,-99.99,,,-99.99,,2013-01-13 00:33:00,
2013-01-12 19:43:00,37.0,-99.9,29.88,North,-999,-999.0,-999.0,-999,-99.99,,,-99.99,,2013-01-13 00:43:00,
2013-01-12 19:53:00,37.0,-99.9,29.88,WSW,251,15.0,21.0,-999,-99.99,,,-99.99,,2013-01-13 00:53:00,
2013-01-12 20:03:00,37.0,-99.9,29.89,North,-999,-999.0,-999.0,-999,-99.99,,,-99.99,,2013-01-13 01:03:00,
2013-01-12 20:12:00,37.0,-99.9,29.89,North,-999,-999.0,-999.0,-999,-99.99,,,-99.99,,2013-01-13 01:12:00,
2013-01-12 20:23:00,37.0,-99.9,29.90,WSW,255,16.0,22.0,-999,-99.99,,,-99.99,,2013-01-13 01:23:00,
2013-01-12 20:33:00,37.0,-99.9,29.89,North,-999,-999.0,-999.0,-999,-99.99,,,-99.99,,2013-01-13 01:33:00,
2013-01-12 20:43:00,37.0,-99.9,29.88,North,-999,-999.0,-999.0,-999,-99.99,,,-99.99,,2013-01-13 01:43:00,
2013-01-12 20:53:00,37.0,-99.9,29.86,WSW,252,17.0,25.0,-999,-99.99,,,-99.99,,2013-01-13 01:53:00,
2013-01-12 21:03:00,37.0,-99.9,29.87,North,-999,-999.0,-999.0,-999,-99.99,,,-99.99,,2013-01-13 02:03:00,
2013-01-12 21:13:00,37.0,-99.9,29.86,North,-999,-999.0,-999.0,-999,-99.99,,,-99.99,,2013-01-13 02:13:00,
2013-01-12 21:23:00,37.0,-99.9,29.86,North,-999,-999.0,-999.0,-999,-99.99,,,-99.99,,2013-01-13 02:23:00,
2013-01-12 21:33:00,37.0,-99.9,29.88,North,-999,-999.0,-999.0,-999,-99.99,,,-99.99,,2013-01-13 02:33:00,
2013-01-12 21:43:00,37.0,-99.9,29.89,North,-999,-999.0,-999.0,-999,-99.99,,,-99.99,,2013-01-13 02:43:00,
2013-01-12 21:53:00,37.0,-99.9,29.88,West,266,13.0,19.0,-999,-99.99,,,-99.99,,2013-01-13 02:53:00,
2013-01-12 22:03:00,36.0,-99.9,29.87,North,-999,-999.0,-999.0,-999,-99.99,,,-99.99,,2013-01-13 03:03:00,
2013-01-12 22:12:00,36.0,-99.9,29.89,North,-999,-999.0,-999.0,-999,-99.99,,,-99.99,,2013-01-13 03:12:00,
2013-01-12 22:22:00,36.0,-99.9,29.89,North,-999,-999.0,-999.0,-999,-99.99,,,-99.99,,2013-01-13 03:22:00,
2013-01-12 22:33:00,36.0,-99.9,29.88,North,-999,-999.0,-999.0,-999,-99.99,,,-99.99,,2013-01-13 03:33:00,
2013-01-12 22:43:00,36.0,-99.9,29.89,North,-999,-999.0,-999.0,-999,-99.99,,,-99.99,,2013-01-13 03:43:00,
2013-01-12 22:53:00,35.0,-99.9,29.89,West,261,8.0,12.0,-999,-99.99,,,-99.99,,2013-01-13 03:53:00,
2013-01-12 23:03:00,35.0,-99.9,29.90,North,-999,-999.0,-999.0,-999,-99.99,,,-99.99,,2013-01-13 04:03:00,
2013-01-12 23:12:00,35.0,-99.9,29.92,North,-999,-999.0,-999.0,-999,-99.99,,,-99.99,,2013-01-13 04:12:00,
2013-01-12 23:22:00,35.0,-99.9,29.92,West,261,12.0,19.0,-999,-99.99,,,-99.99,,2013-01-13 04:22:00,
2013-01-12 23:33:00,35.0,-99.9,29.93,North,-999,-999.0,-999.0,-999,-99.99,,,-99.99,,2013-01-13 04:33:00,
2013-01-12 23:43:00,35.0,-99.9,29.93,WSW,243,8.0,14.0,-999,-99.99,,,-99.99,,2013-01-13 04:43:00,
2013-01-12 23:53:00,35.0,-99.9,29.94,North,-999,-999.0,-999.0,-999,-99.99,,,-99.99,,2013-01-13 04:53:00,